When you browse on this site, cookies collect data to enhance your experience and personalize the content and advertising you see.
Visit our Privacy Policy to learn more. By continuing to use the site, you agree to this use of cookies and data.
  • In Portugal
  • List of Countries
  • For 7 days
  • Water Temperature
  • Satellite Maps
  • Weather Map
  • Weather Widgets
  • user-avatar
    Login

    Hourly Weather Muhino

    Today, 24 April, Wednesday

    Time Temperature Precipitation Wind Pressure Humidity
    00:00 +9°C° 0 mm 2 mps 757 mmHg 66%
    01:00 +9°C° 0 mm 2 mps 757 mmHg 67%
    02:00 +9°C° 0 mm 1 mps 757 mmHg 70%
    03:00 +9°C° 0 mm 1 mps 757 mmHg 70%
    04:00 +8°C° 0 mm 2 mps 757 mmHg 71%
    05:00 +8°C° 0 mm 2 mps 757 mmHg 71%
    06:00 +10°C° 0 mm 2 mps 757 mmHg 65%
    07:00 +13°C° 0 mm 2 mps 758 mmHg 58%
    08:00 +15°C° 0 mm 2 mps 758 mmHg 52%
    09:00 +17°C° 0 mm 2 mps 758 mmHg 47%
    10:00 +19°C° 0 mm 3 mps 757 mmHg 41%
    11:00 +20°C° 0 mm 3 mps 757 mmHg 36%
    12:00 +21°C° 0 mm 3 mps 757 mmHg 35%
    13:00 +21°C° 0 mm 3 mps 757 mmHg 35%
    14:00 +22°C° 0 mm 3 mps 757 mmHg 34%
    15:00 +22°C° 0 mm 3 mps 757 mmHg 37%
    16:00 +21°C° 0 mm 2 mps 757 mmHg 40%
    17:00 +21°C° 0 mm 2 mps 756 mmHg 43%
    18:00 +20°C° 0 mm 1 mps 756 mmHg 47%
    19:00 +18°C° 0 mm 1 mps 756 mmHg 52%
    20:00 +15°C° 0 mm 1 mps 756 mmHg 57%
    21:00 +14°C° 0 mm 1 mps 756 mmHg 59%
    22:00 +13°C° 0 mm 1 mps 756 mmHg 61%
    23:00 +13°C° 0 mm 1 mps 757 mmHg 63%

    Tomorrow, 25 April, Thursday

    Time Temperature Precipitation Wind Pressure Humidity
    00:00 +12°C° 0 mm 1 mps 757 mmHg 66%
    01:00 +12°C° 0 mm 1 mps 757 mmHg 68%
    02:00 +11°C° 0 mm 1 mps 757 mmHg 70%
    03:00 +11°C° 0 mm 1 mps 757 mmHg 71%
    04:00 +11°C° 0 mm 1 mps 757 mmHg 71%
    05:00 +10°C° 0 mm 0 mps 757 mmHg 72%
    06:00 +12°C° 0 mm 0 mps 757 mmHg 65%
    07:00 +14°C° 0 mm 0 mps 757 mmHg 57%
    08:00 +16°C° 0 mm 0 mps 757 mmHg 50%
    09:00 +20°C° 0 mm 1 mps 757 mmHg 45%
    10:00 +21°C° 0 mm 1 mps 756 mmHg 41%
    11:00 +23°C° 0 mm 1 mps 756 mmHg 36%
    12:00 +23°C° 0 mm 1 mps 756 mmHg 34%
    13:00 +23°C° 0 mm 1 mps 756 mmHg 33%
    14:00 +24°C° 0 mm 1 mps 755 mmHg 31%
    15:00 +23°C° 0 mm 1 mps 755 mmHg 35%
    16:00 +22°C° 0 mm 1 mps 755 mmHg 39%
    17:00 +22°C° 0 mm 1 mps 755 mmHg 43%
    18:00 +20°C° 0 mm 1 mps 755 mmHg 46%
    19:00 +19°C° 0 mm 1 mps 754 mmHg 49%
    20:00 +16°C° 0 mm 1 mps 754 mmHg 53%
    21:00 +16°C° 0 mm 1 mps 754 mmHg 54%
    22:00 +15°C° 0 mm 1 mps 754 mmHg 55%
    23:00 +15°C° 0 mm 1 mps 754 mmHg 57%

    Day after tomorrow, 26 April, Friday

    Time Temperature Precipitation Wind Pressure Humidity
    00:00 +15°C° 0 mm 1 mps 754 mmHg 59%
    01:00 +14°C° 0 mm 1 mps 754 mmHg 62%
    02:00 +13°C° 0 mm 1 mps 754 mmHg 64%
    03:00 +13°C° 0 mm 1 mps 754 mmHg 66%
    04:00 +12°C° 0 mm 1 mps 754 mmHg 69%
    05:00 +12°C° 0 mm 1 mps 754 mmHg 71%
    06:00 +14°C° 0 mm 1 mps 754 mmHg 66%
    07:00 +15°C° 0 mm 2 mps 754 mmHg 61%
    08:00 +17°C° 0 mm 2 mps 754 mmHg 56%
    09:00 +18°C° 0 mm 2 mps 754 mmHg 51%
    10:00 +19°C° 0 mm 2 mps 753 mmHg 47%
    11:00 +21°C° 0 mm 2 mps 753 mmHg 42%
    12:00 +21°C° 0 mm 2 mps 753 mmHg 41%
    13:00 +22°C° 0 mm 1 mps 753 mmHg 40%
    14:00 +23°C° 0 mm 1 mps 752 mmHg 38%
    15:00 +22°C° 0 mm 1 mps 752 mmHg 41%
    16:00 +21°C° 0 mm 1 mps 751 mmHg 44%
    17:00 +21°C° 0 mm 1 mps 751 mmHg 47%
    18:00 +19°C° 0.1 mm 1 mps 751 mmHg 55%
    19:00 +16°C° 0.1 mm 1 mps 751 mmHg 63%
    20:00 +14°C° 0.1 mm 1 mps 750 mmHg 70%
    21:00 +14°C° 0.3 mm 1 mps 750 mmHg 74%
    22:00 +13°C° 0.3 mm 1 mps 750 mmHg 77%
    23:00 +13°C° 0.3 mm 1 mps 749 mmHg 81%

    27 April, Saturday

    Time Temperature Precipitation Wind Pressure Humidity
    00:00 +12°C° 0.2 mm 1 mps 749 mmHg 81%
    01:00 +12°C° 0.2 mm 1 mps 749 mmHg 81%
    02:00 +12°C° 0.2 mm 1 mps 748 mmHg 81%
    03:00 +12°C° 0.2 mm 1 mps 748 mmHg 84%
    04:00 +12°C° 0.2 mm 1 mps 748 mmHg 86%
    05:00 +12°C° 0.2 mm 1 mps 747 mmHg 89%
    06:00 +13°C° 0.1 mm 2 mps 747 mmHg 86%
    07:00 +14°C° 0.1 mm 2 mps 747 mmHg 83%
    08:00 +15°C° 0.1 mm 2 mps 747 mmHg 79%
    09:00 +17°C° 0.3 mm 2 mps 746 mmHg 72%
    10:00 +18°C° 0.3 mm 2 mps 746 mmHg 64%
    11:00 +20°C° 0.3 mm 1 mps 746 mmHg 57%
    12:00 +20°C° 1.2 mm 2 mps 745 mmHg 56%
    13:00 +20°C° 1.2 mm 2 mps 745 mmHg 55%
    14:00 +20°C° 1.2 mm 2 mps 744 mmHg 55%
    15:00 +19°C° 0.1 mm 2 mps 744 mmHg 56%
    16:00 +19°C° 0.1 mm 2 mps 744 mmHg 57%
    17:00 +19°C° 0.1 mm 2 mps 744 mmHg 58%
    18:00 +17°C° 0 mm 2 mps 744 mmHg 63%
    19:00 +16°C° 0 mm 2 mps 744 mmHg 69%
    20:00 +14°C° 0 mm 2 mps 744 mmHg 74%
    21:00 +13°C° 0 mm 2 mps 745 mmHg 72%
    22:00 +11°C° 0 mm 3 mps 745 mmHg 71%
    23:00 +11°C° 0 mm 4 mps 746 mmHg 70%

    28 April, Sunday

    Time Temperature Precipitation Wind Pressure Humidity
    00:00 +10°C° 0 mm 4 mps 746 mmHg 72%
    01:00 +8°C° 0 mm 4 mps 747 mmHg 74%
    02:00 +7°C° 0 mm 4 mps 747 mmHg 76%
    03:00 +6°C° 0 mm 4 mps 748 mmHg 73%
    04:00 +5°C° 0 mm 4 mps 748 mmHg 71%
    05:00 +3°C° 0 mm 4 mps 749 mmHg 68%
    06:00 +4°C° 0 mm 4 mps 749 mmHg 64%
    07:00 +4°C° 0 mm 4 mps 750 mmHg 61%
    08:00 +5°C° 0 mm 4 mps 751 mmHg 58%
    09:00 +6°C° 0 mm 4 mps 751 mmHg 55%
    10:00 +7°C° 0 mm 4 mps 751 mmHg 51%
    11:00 +8°C° 0 mm 4 mps 752 mmHg 48%
    12:00 +8°C° 0 mm 4 mps 752 mmHg 46%
    13:00 +8°C° 0 mm 4 mps 752 mmHg 44%
    14:00 +10°C° 0 mm 4 mps 752 mmHg 42%
    15:00 +8°C° 0 mm 4 mps 752 mmHg 42%
    16:00 +8°C° 0 mm 4 mps 753 mmHg 42%
    17:00 +7°C° 0 mm 4 mps 753 mmHg 42%
    18:00 +7°C° 0 mm 3 mps 753 mmHg 47%
    19:00 +4°C° 0 mm 3 mps 754 mmHg 51%
    20:00 +4°C° 0 mm 2 mps 754 mmHg 56%
    21:00 +3°C° 0 mm 2 mps 755 mmHg 58%
    22:00 +2°C° 0 mm 2 mps 755 mmHg 61%
    23:00 +2°C° 0 mm 2 mps 755 mmHg 63%

    29 April, Monday

    Time Temperature Precipitation Wind Pressure Humidity
    00:00 +1°C° 0 mm 2 mps 756 mmHg 65%
    01:00 +1°C° 0 mm 2 mps 756 mmHg 67%
    02:00 -1°C° 0 mm 2 mps 756 mmHg 70%
    03:00 -1°C° 0 mm 2 mps 756 mmHg 70%
    04:00 -1°C° 0 mm 2 mps 756 mmHg 71%
    05:00 -1°C° 0 mm 2 mps 756 mmHg 71%
    06:00 +2°C° 0 mm 2 mps 757 mmHg 63%
    07:00 +4°C° 0 mm 2 mps 757 mmHg 55%
    08:00 +6°C° 0 mm 2 mps 757 mmHg 47%
    09:00 +7°C° 0 mm 2 mps 757 mmHg 43%
    10:00 +8°C° 0 mm 2 mps 756 mmHg 39%
    11:00 +9°C° 0 mm 2 mps 756 mmHg 35%
    12:00 +11°C° 0 mm 1 mps 756 mmHg 34%
    13:00 +11°C° 0 mm 1 mps 755 mmHg 32%
    14:00 +12°C° 0 mm 1 mps 755 mmHg 31%
    15:00 +11°C° 0 mm 1 mps 754 mmHg 32%
    16:00 +11°C° 0 mm 1 mps 754 mmHg 32%
    17:00 +11°C° 0 mm 1 mps 754 mmHg 33%
    18:00 +9°C° 0 mm 1 mps 754 mmHg 38%
    19:00 +6°C° 0 mm 0 mps 753 mmHg 44%
    20:00 +5°C° 0 mm 0 mps 753 mmHg 49%
    21:00 +4°C° 0 mm 0 mps 753 mmHg 50%
    22:00 +5°C° 0 mm 1 mps 753 mmHg 52%
    23:00 +4°C° 0 mm 1 mps 753 mmHg 53%
    Show more